www.pogodaiklimat.ru

Погода и климат >> Архив погоды >> Россия >> Костромская область >> Кострома


АРХИВ ПОГОДЫ в Костроме

Время (UTC), дата Ветер
(напр.,м/с)
 
Видим.   Явления Облачность Т
(С)
Тd
(С)
f
(%)
Тe
(С)
Тes
(С)
Комфортность P
(гПа)
Po
(гПа)
Тmin
(С)
Tmax
(С)
R
(мм)
R24
(мм)
S
(см)
21 16.05 С 1 50 км 1/1 600 м
[Cu hum]
+4.0 +0.2 76 +3 +3 холодно 1026.0 1010.2
00 17.05 Ю 2 30 км 1/0
[Ci fib]
+0.9 -0.5 90 -3 -3 очень
холодно
1026.2 1010.2
03 17.05 З 2 30 км 1/0
[Ci fib]
+6.7 +0.6 65 +5 +6 прохладно 1026.3 1010.7 +0.9
06 17.05 СЗ 2 30 км 1/0
[Ci sp]
+12.4 -1.4 38 +12 +20 по сезону 1025.7 1010.3
09 17.05 СЗ 2 30 км 3/3 600 м
[Cu hum]
+15.5 -1.7 31 +16 +25 тепло 1023.2 1008.0
12 17.05 СЗ 4 30 км 6/6 600 м
[Cu hum]
+17.4 -1.4 28 +17 +20 тепло 1021.0 1006.0
15 17.05 С 2 30 км 4/4 600 м
[Cu hum Ci sp]
+17.4 -0.6 29 +18 +19 тепло 1019.4 1004.4 +18.0
18 17.05 З 3 30 км 5/3 600 м
[Cu hum Ci]
+14.2 +0.2 38 +14 +14 тепло 1018.4 1003.3
21 17.05 З 3 50 км 8/8 600 м
[Cu hum]
+12.3 +2.4 51 +11 +11 по сезону 1018.1 1002.9
00 18.05 С 2 50 км 3/1 600 м
[Cu hum Ci fib]
+8.8 +2.2 63 +7 +7 по сезону 1019.1 1003.7
03 18.05 С 3 30 км 1/0
[Ci fib]
+9.0 +0.6 56 +7 +8 по сезону 1019.8 1004.4 +7.6
06 18.05 С 4 30 км 1/0
[Ci fib]
+10.7 -0.6 45 +9 +14 по сезону 1019.7 1004.3
09 18.05 СЗ 3 30 км 3/1 600 м
[Cu hum Ci fib]
+14.1 -1.6 34 +13 +24 опасность
простуды
1018.8 1003.6
12 18.05 С 5-12
{12}
30 км 8/1 600 м
[Cu hum Ac As Cs]
+15.8 -1.3 31 +15 +18 по сезону 1017.0 1001.9
15 18.05 СЗ 2
{12}
30 км 9/1 600 м
[Cu hum Ac As]
+15.6 +1.4 38 +16 +17 тепло 1015.0 1000.0 +16.5
18 18.05 З 2 30 км 8/3 600 м
[Cu hum Ac As]
+14.4 +3.9 49 +14 +14 тепло 1013.8 998.8
21 18.05 СВ 2
{10}
50 км 6/3 600 м
[Cu hum Ac As]
+9.4 +3.4 66 +8 +8 по сезону 1016.1 1000.8
00 19.05 штиль 0 50 км ясно +1.5 +0.5 93 0 0 холодно 1018.0 1002.2
03 19.05 С 2 30 км ясно +6.4 -0.1 63 +4 +6 холодно 1018.3 1002.8 +0.2
06 19.05 С 4 30 км 3/0
[Ac As]
+9.3 -0.8 49 +7 +11 прохладно 1018.0 1002.6
09 19.05 С 5
{10}
30 км 3/0
[Ac As]
+11.0 -1.7 41 +9 +15 прохладно 1018.3 1003.0
12 19.05 С 5
{10}
30 км 1/0
[Ac As]
+12.8 -2.1 35 +11 +16 прохладно 1018.6 1003.3
15 19.05 С 4 30 км 1/0
[Ac As]
+12.6 -2.9 34 +11 +13 прохладно 1019.2 1004.0 +13.1
18 19.05 штиль 0 30 км ясно +5.3 +1.2 75 +5 +5 холодно 1020.0 1004.4
21 19.05 Ю 1 50 км ясно +1.0 0.0 93 -1 -1 очень
холодно
1021.0 1005.1
00 20.05 штиль 0 50 км ясно +0.9 -0.6 90 -0 -0 холодно 1022.1 1006.2
03 20.05 СЗ 1 30 км 1/0
[Ci fib]
+6.0 +3.2 82 +5 +7 прохладно 1022.5 1006.9 -0.4
06 20.05 СЗ 2 30 км 1/0
[Ci sp]
+12.1 +0.2 44 +12 +20 по сезону 1022.1 1006.8
09 20.05 С 3 30 км 3/1 600 м
[Cu hum Ci fib]
+14.0 -0.8 36 +13 +24 опасность
простуды
1021.6 1006.4
12 20.05 С 4
{10}
30 км 1/0
[Ci fib]
+15.9 -0.9 32 +15 +22 по сезону 1020.9 1005.8
15 20.05 С 4 30 км 1/0
[Ci fib]
+15.9 -1.4 31 +15 +17 тепло 1020.0 1004.9 +16.5
18 20.05 штиль 0 30 км ясно +7.0 +2.0 70 +6 +6 холодно 1020.9 1005.4
21 20.05 Ю 1 50 км ясно +3.7 +1.7 87 +2 +2 холодно 1021.7 1005.9
00 21.05 Ю 1 50 км ясно +1.9 +0.9 93 0 0 холодно 1022.0 1006.1
03 21.05 штиль 0 30 км 9/3 600 м
[Cu med, cong Ac cast Ci sp]
+8.5 +4.1 74 +8 +9 по сезону 1021.9 1006.4 +1.5
06 21.05 З 1 30 км 10/0
[Ac und]
+14.0 +4.0 51 +15 +18 тепло 1021.5 1006.3
09 21.05 ЮЗ 2 30 км слаб. дождь 10/0
[Ac As]
+12.5 +6.0 65 +12 +16 по сезону 1021.1 1005.8
12 21.05 Ю 3 30 км {дождь} 10/4 600 м
[Cb cap Ac As]
+15.2 +4.8 50 +15 +16 по сезону 1019.7 1004.6
15 21.05 ЮВ 2 30 км 10/6 600 м
[Cb cap Ac As]
+15.6 +6.4 54 +16 +16 тепло 1016.8 1001.8 +16.8 0.0
18 21.05 ЮВ 2 30 км слаб. ливневой дождь 10/10 600 м
[Cb cap]
+11.7 +7.7 76 +11 +11 по сезону 1016.2 1001.0
21 21.05 Ю 4 50 км слаб. ливневой дождь 10/10 600 м
[Cb cap]
+10.5 +8.4 87 +8 +8 по сезону 1014.3 999.0
00 22.05 Ю 2 50 км {ливн. осадки} 10/10 600 м
[Cb cap]
+10.1 +8.1 87 +9 +9 по сезону 1013.1 997.8
03 22.05 ЮВ 1 30 км слаб. ливневой дождь 10/9 600 м
[Cb cap Ac und]
+9.8 +8.8 93 +9 +9 по сезону 1012.4 997.1 +9.7 3
06 22.05 ЮВ 4 6000 м слаб. дождь 10/8 300 м
[Frnb As op]
+10.6 +9.7 94 +8 +8 прохладно 1011.0 995.8
09 22.05 В 1 30 км {дождь} 10/9 300 м
[Frnb As op]
+13.9 +12.3 90 +14 +14 по сезону 1011.0 996.0
12 22.05 СВ 1 30 км {дождь} 10/8
[Cb calv Ac As]
+15.8 +12.7 82 +16 +17 по сезону 1010.4 995.5
15 22.05 С 2 30 км 10/6 600 м
[Cb calv Ci fib]
+15.8 +12.4 80 +16 +17 тепло 1009.2 994.3 +16.6 4
18 22.05 С 1 30 км 10/8 600 м
[Cb calv Ac As]
+13.7 +12.0 89 +14 +14 по сезону 1009.0 994.0
21 22.05 штиль 0 3000 м дымка 3/0
[Ci fib]
+10.9 +9.9 94 +10 +10 по сезону 1007.6 992.5
00 23.05 Ю 1 900 м туман 10/0
[Ac und]
+12.1 +11.3 95 +12 +12 тепло 1005.9 990.9
03 23.05 штиль 0 800 м туман 10/10 200 м
[Frnb]
+12.1 +11.4 95 +11 +11 по сезону 1004.5 989.5 +10.2
06 23.05 СЗ 1 30 км {туман} 10/8 300 м
[Sc diur, vesp Ac As]
+16.1 +13.4 84 +17 +17 тепло 1003.5 988.7
09 23.05 СЗ 1 30 км слаб. дождь 10/3 600 м
[Sc diur, vesp Ac As]
+14.5 +12.6 88 +15 +18 по сезону 1003.9 989.0
12 23.05 С 7-12
{15}
30 км {дождь} 10/3 600 м
[Sc diur, vesp Ac As]
+13.5 +9.7 78 +11 +12 холодно 1004.7 989.7
15 23.05 С 5
{12}
30 км слаб. дождь 10/3 600 м
[Sc Ac As]
+9.4 +6.6 83 +6 +6 очень
холодно
1007.3 992.1 +17.9 0.8
18 23.05 С 5
{10}
30 км {дождь} 10/4 600 м
[Sc Ac As]
+6.3 +3.2 81 +2 +2 очень
холодно
1010.4 994.9

 

Местоположение метеостанции Кострома (Костромская область, Россия): широта 57.73 долгота 40.78 высота над уровнем моря 126 м.

В архиве по умолчанию представлена погода в Костроме за последнюю неделю. Архивные данные за месяц целиком и за предыдущие месяцы, начиная с января 2011 года, Вы можете получить, выбрав интересующий диапазон дат из раскрывающегося списка и нажав кнопку "Ввод!".


*Определитесь, кто Вы:
робот инопланетянин человек

Внимание! Время в таблицах - всемирное. Для получения местного времени необходимо прибавить поправку, которая равна 3 ч.

Смотрите также архив погоды в соседних городах и на ближайших метеорологических станциях:

Погода в Приволжске (Ивановская область, Россия) (49 км)
Погода в Плесе (Ивановская область, Россия) (53 км)
Погода в Ярославле (Ярославская область, Россия) (53 км)
Погода в Ярославле-Музее (Ярославская область, Россия) (55 км)
Погода в Данилове (Ярославская область, Россия) (63 км)
Погода в Гаврилов-Яме (Ярославская область, Россия) (73 км)
Погода в Тутаеве (Ярославская область, Россия) (76 км)
Погода в Иванове (Ивановская область, Россия) (88 км)
Погода в Вичуге (Ивановская область, Россия) (89 км)
Погода в Кинешме (Ивановская область, Россия) (90 км)

Пояснения к столбцам:

Ветер - указаны скорость ветра в м/с - средняя за 10 мин, порывы в срок и между сроками (в фигурных скобках) и направление, откуда дует ветер: С - северный, СВ - северо-восточный, В - восточный, ЮВ - юго-восточный, Ю - южный, ЮЗ - юго-западный, З - западный, СЗ - северо-западный.
Видимость - горизонтальная дальность видимости в метрах или километрах. При видимости от 1 до 10 км при отсутствии осадков обычно наблюдается дымка, при ухудшении видимости до 1 км и менее - туман. В сухую погоду видимость может ухудшаться дымом, пылью или мглою.
Явления - указаны атмосферные явления, наблюдавшиеся в срок или в последний час перед сроком; фигурными скобками обозначены явления, наблюдавшиеся между сроками (за 1-3 часа до срока); квадратными скобками обозначены град или гололедные отложения с указанием их диаметра в мм.
Облачность - указаны через наклонную черту общая и нижняя облачность в баллах и высота нижней границы облаков в метрах; квадратными скобками обозначены формы облаков: Ci - перистые, Cs - перисто-слоистые, Cc - перисто-кучевые, Ac - высококучевые, As - высокослоистые, Sc - слоисто-кучевые, Ns - слоисто-дождевые, Cu - кучевые, Cb - кучево-дождевые. Подробнее классификацию облаков см. в Атласе облаков (PDF).
T - Температура воздуха - температура, измеренная на высоте 2 м над землей.
Td - Температура точки росы - температура, при понижении до которой содержащийся в воздухе водяной пар достигнет насыщения.
f - Относительная влажность воздуха - влажноcть воздуха, измеренная на высоте 2 м над землей.
Te - Эффективная температура - температура, которую ощущает одетый по сезону человек в тени. Характеристика душности погоды. При расчете учитывается влияние влажности воздуха и скорости ветра на теплоощущения человека.
Tes - Эффективная температура на солнце - температура, которую ощущает человек, с поправкой на солнечный нагрев. Характеристика знойности погоды. Зависит от высоты солнца над горизонтом, облачности и скорости ветра. Ночью, в пасмурную погоду, а также при ветре 12 м/с и более поправка равна нулю.
P - Атмосферное давление - приведенное к уровню моря атмосферное давление.
Po - Атмосферное давление - измеренное на уровне метеостанции атмосферное давление.
Tmin - Минимальная температура - минимум температуры воздуха на высоте 2 м над землей.
Tmax - Максимальная температура - максимум температуры воздуха на высоте 2 м над землей.
R - Количество осадков - Количество выпавших осадков за период времени, мм. При наведении курсора мыши на число - период времени, за который выпало указанное количество осадков.
R24 - Количество осадков - Количество выпавших осадков за 24 часа, мм.
S - Снежный покров - Высота снежного покрова, см. При наведении курсора мыши на число - состояние снежного покрова и степень покрытия местности в баллах.